STARLINK-6117, 56130

Orbit data source: Space-Track

STARLINK-6117, 56130 is a payload satellite owned by SpaceX/Seattle (US) in LEO that was launched on Wed, 29 Mar 2023 UTC via an FALCON 9 launch vehicle from the Air Force Eastern Test Range (AFETR). Payload-class satellites include a variety of spacecraft equipped with specific instruments for various scientific and technological missions. These include communications satellites like Starlink; space stations such as the ISS; scientific satellites like the Hubble; Earth observation satellites from companies like Planet Labs, Umbra, and HawkEye 360; GPS; miniature CubeSats for education and research; and military/defense satellites.

Loading next visibility...
Identifier
56130, 2023-046AQ
Orbit
LEO
Country
Flag of USUS
Related business
Manufacturer
SpaceX/Seattle
Mission
Operational Commercial Communications
Bus & Motor
STARLINK, Unknown motor
Mass
305 kg wet, ~290 kg dry
Launch date (UTC)
2023-03-29 (3 years ago)
Launch vehicle
FALCON 9
Launch site
Air Force Eastern Test Range (AFETR)
Object type
Payload
Rocket body
Debris
Shape & HBR
Box + 1 Pan, 10.1 m
Radar Cross Section
11.087 m², Large (>1 m²)

Expand to show TLE details & history
Last TLE update: 2 days ago

TLE from 2 days ago
0 STARLINK-6117
1 56130U 23046AQ  26171.36589931 -.00000948  00000-0 -24916-4 0  9990
2 56130  43.0034 287.0876 0000973 256.3775 103.6968 15.27582364177903
Epoch: 2026-06-20T08:46Z
TLE epoch observation values (Epoch: 2026-06-20T08:46:53.700Z)
Latitude
-0.00004°
Longitude
-113.21775°
Altitude
482.976 km
Speed
7.626 km/s
True Right ascension
19h 08m 21s
True Declination
0° 00' 00"
Sunlit
Object was in full shadow at epoch
Visualization orbit readout
Latitude
Unknown
Longitude
Unknown
Altitude
Unknown
Speed
Unknown
Apparent Right ascension
Unknown
Apparent Declination
Unknown
Sunlit
N/A
Visualization observer readout
Local Sidereal Time
00:51:25
Azimuth
Unknown
Elevation
Unknown
Doppler factor
Unknown
Orbital elements
Apogee altitude
485.654 km
Perigee altitude
484.319 km
Semi-major axis
6,863.124 km
Eccentricity
0.0001
Inclination
43.0034°
RAAN
287.0876°
Arg. of periapsis
256.3775°
True anomaly
103.70763°
Mean anomaly
103.6968°
Eccentric anomaly
103.70222°
Mean motion
3.81734 °/min
Orbital period
94.31 mins
BSTAR
-0.000024916
Loading maneuver chart data...
Computing Atmospheric mass density...

Documentation

Showing up to 5 results
|